Location: Home
(42.5358°N, 72.7383°W)
Time: 22:17:47
(UTC-05:00)

Altair - Pass Details

Date: 10 December 2021
Orbit: 1501 x 1683 km, 47.2° (Epoch: 26 January)

Event Time Altitude Azimuth Distance (km) Brightness Sun altitude
Rises 17:52:42 0° 288° (WNW) 4,739 11.0 -16.8°
Reaches altitude 10° 17:55:49 10° 290° (WNW) 3,731 10.3 -17.4°
Maximum altitude 18:05:14 78° 17° (NNE) 1,548 7.4 -19.1°
Enters shadow 18:11:11 25° 101° (E) 2,644 8.2 -20.1°
